Location: Borgo
(42.3939°N, 9.2791°E)
Time: 03:57:28
(UTC+00:00)

NOAA 11 - Pass Details

Date: 27 February 2020
Orbit: 833 x 849 km, 98.4° (Epoch: 02 April)

Event Time Altitude Azimuth Distance (km) Brightness Sun altitude
Rises 17:59:28 0° 168° (SSE) 3,377 7.2 -10.0°
Reaches altitude 10° 18:01:49 10° 169° (S) 2,445 6.5 -10.4°
Maximum altitude 18:07:15 81° 257° (WSW) 852 4.3 -11.4°
Drops below altitude 10° 18:12:43 10° 345° (NNW) 2,454 6.8 -12.4°
Sets 18:15:05 0° 346° (NNW) 3,391 7.5 -12.9°
